TimePST,TemperatureF,Dew PointF,Humidity,Sea Level PressureIn,VisibilityMPH,Wind Direction,Wind SpeedMPH,Gust SpeedMPH,PrecipitationIn,Events,Conditions,WindDirDegrees,DateUTC
12:53 AM,57.0,23.0,27,30.00,10.0,WSW,3.5,-,N/A,,Clear,240,2013-12-28 08:53:00
1:53 AM,55.9,23.0,28,30.00,10.0,West,4.6,-,N/A,,Clear,260,2013-12-28 09:53:00
2:53 AM,57.9,19.0,22,29.99,10.0,WNW,3.5,-,N/A,,Clear,290,2013-12-28 10:53:00
3:53 AM,57.9,21.9,25,29.98,10.0,NW,4.6,-,N/A,,Clear,320,2013-12-28 11:53:00
4:53 AM,55.9,25.0,30,29.97,10.0,NE,4.6,-,N/A,,Clear,50,2013-12-28 12:53:00
5:53 AM,57.0,21.9,26,29.97,10.0,SSW,4.6,-,N/A,,Clear,210,2013-12-28 13:53:00
6:53 AM,52.0,28.0,40,29.99,10.0,Calm,Calm,-,N/A,,Clear,0,2013-12-28 14:53:00
7:53 AM,52.0,28.0,40,29.99,10.0,North,3.5,-,N/A,,Clear,10,2013-12-28 15:53:00
8:53 AM,59.0,27.0,29,30.00,10.0,Calm,Calm,-,N/A,,Clear,0,2013-12-28 16:53:00
9:53 AM,66.9,21.0,17,30.00,10.0,Calm,Calm,-,N/A,,Clear,0,2013-12-28 17:53:00
10:53 AM,71.1,19.9,14,29.98,10.0,ESE,3.5,-,N/A,,Clear,110,2013-12-28 18:53:00
11:53 AM,73.9,14.0,10,29.94,10.0,SE,4.6,-,N/A,,Clear,130,2013-12-28 19:53:00
12:53 PM,75.9,17.1,11,29.91,10.0,South,5.8,-,N/A,,Clear,180,2013-12-28 20:53:00
1:53 PM,75.0,16.0,11,29.90,10.0,SE,6.9,-,N/A,,Clear,140,2013-12-28 21:53:00
2:53 PM,75.0,24.1,15,29.89,10.0,South,6.9,-,N/A,,Clear,180,2013-12-28 22:53:00
3:53 PM,72.0,28.9,20,29.89,10.0,South,6.9,-,N/A,,Clear,170,2013-12-28 23:53:00
4:53 PM,69.1,30.0,23,29.91,10.0,SE,5.8,-,N/A,,Clear,130,2013-12-29 00:53:00
5:53 PM,64.9,35.1,33,29.92,10.0,SE,4.6,-,N/A,,Clear,140,2013-12-29 01:53:00
6:53 PM,62.1,37.9,41,29.94,10.0,Calm,Calm,-,N/A,,Clear,0,2013-12-29 02:53:00
7:53 PM,57.9,30.9,36,29.96,10.0,NW,4.6,-,N/A,,Clear,320,2013-12-29 03:53:00
8:53 PM,55.9,28.9,36,29.96,10.0,Calm,Calm,-,N/A,,Clear,0,2013-12-29 04:53:00
9:53 PM,54.0,30.0,40,29.97,10.0,Calm,Calm,-,N/A,,Clear,0,2013-12-29 05:53:00
10:53 PM,52.0,30.9,45,29.98,10.0,Calm,Calm,-,N/A,,Clear,0,2013-12-29 06:53:00
11:53 PM,50.0,32.0,50,29.98,10.0,Calm,Calm,-,N/A,,Clear,0,2013-12-29 07:53:00